Theta_e
295 290 288 288 290 292 292 291 291 290 291 290 290 288 287 287 287 288 289 291 292 290 289 289 290 292 293 293 293 290 289 289 289 290 292 291 291 291 292 295 297 299 303 307 307 307 312 316 319 320 321 322 322 323 323 323 323 324 324 323 323 325 325 326 326 326 327 325 325 325 326 327 328 328 327 326 327 328 328 328 327 327 326 327 326 325
295 288 288 291 292 292 292 290 291 291 290 289 288 287 287 287 287 288 291 291 289 290 287 287 287 289 291 292 292 290 290 291 291 292 292 293 292 292 292 293 294 297 298 297 299 304 306 311 315 318 319 319 320 321 322 322 323 324 324 324 324 324 324 326 327 327 326 327 328 327 327 327 328 328 327 327 328 328 328 328 328 328 327 327 327 325
289 288 289 291 290 293 292 289 290 290 289 288 287 286 285 285 286 288 289 290 289 289 286 285 287 290 292 293 293 290 291 291 292 293 295 294 293 293 293 293 293 293 295 296 298 300 305 307 311 315 318 319 321 322 322 323 323 323 324 324 324 325 325 325 326 327 326 328 327 328 326 327 322 323 329 329 328 326 325 326 327 328 328 328 327 326
285 288 291 291 290 292 289 288 288 289 289 287 286 285 285 286 286 283 286 289 289 287 286 284 284 288 291 290 290 291 291 292 294 292 293 293 294 295 295 295 294 293 294 295 297 299 302 305 309 312 315 318 320 320 321 322 323 323 323 324 325 325 325 325 326 324 327 327 327 325 321 323 324 323 322 326 326 327 326 324 324 324 326 327 327 327
288 289 290 290 289 291 290 288 288 288 287 287 287 286 285 286 287 287 286 288 289 289 286 284 285 286 289 290 290 290 288 290 292 291 291 291 293 296 296 294 294 295 295 295 296 297 298 302 307 311 314 316 318 320 321 322 323 324 323 324 325 325 325 326 324 324 326 323 320 320 315 315 316 314 320 325 326 328 326 326 325 324 323 326 327 327
287 288 291 289 288 289 289 288 288 289 285 285 287 288 287 287 288 289 289 289 288 286 287 288 280 279 281 284 287 291 286 287 288 290 292 293 293 293 293 294 296 295 295 295 296 296 297 300 304 308 311 313 316 318 320 321 323 324 324 324 324 325 325 325 325 325 325 324 325 321 322 321 321 322 321 321 323 326 326 326 326 325 325 325 326 327
289 288 290 290 288 287 288 288 289 289 286 283 285 289 289 289 289 289 288 288 282 281 286 285 284 275 280 284 286 285 283 287 289 288 291 292 293 293 293 295 295 295 295 293 293 292 293 295 297 303 308 312 314 317 319 320 321 323 324 324 324 325 325 325 325 324 323 324 324 324 324 325 324 324 324 325 322 326 327 327 327 326 324 325 325 325
287 286 287 289 288 286 285 285 288 289 285 282 286 288 289 288 288 288 289 288 283 285 288 285 283 279 281 288 285 284 284 286 288 289 290 292 292 292 294 294 294 295 294 295 294 294 294 296 297 300 305 310 314 316 317 318 319 321 322 323 323 324 323 325 325 323 324 324 324 323 324 324 324 324 324 322 317 318 322 326 326 326 325 324 324 324
290 286 286 286 287 286 286 287 287 289 286 283 288 289 288 290 289 289 289 285 285 286 283 284 284 281 277 282 284 283 285 286 288 289 290 292 292 293 293 294 294 295 295 294 295 294 294 295 296 298 301 307 311 313 315 317 318 320 321 321 321 323 322 322 323 322 323 323 324 324 324 323 323 324 320 312 313 318 319 324 325 325 325 324 324 324
286 291 288 289 288 287 288 287 288 290 286 286 288 289 289 288 288 289 285 286 284 282 281 282 282 279 277 279 283 282 284 284 286 290 291 291 291 290 291 292 292 292 292 293 294 295 295 295 296 297 297 299 305 309 310 310 312 315 316 317 318 320 321 322 322 322 323 322 322 323 323 322 322 317 310 312 313 313 314 321 322 324 324 324 323 323
287 290 291 288 287 289 287 286 288 290 289 290 290 288 286 284 284 283 284 282 282 277 282 281 282 281 277 281 286 286 285 288 290 289 289 289 288 288 289 290 292 292 292 293 293 294 294 293 294 294 297 299 299 302 305 308 310 312 314 316 317 319 320 320 322 321 322 322 322 323 322 322 321 315 314 313 310 311 311 318 319 321 323 323 324 323
287 288 288 287 288 289 288 288 288 290 290 292 285 283 286 284 282 283 280 282 277 277 278 278 279 279 277 277 280 285 285 284 289 290 291 290 288 289 289 291 292 291 291 291 292 293 293 294 295 294 296 297 298 298 303 306 306 309 312 313 316 316 317 318 320 320 322 322 322 322 322 321 320 317 315 315 314 312 313 313 315 317 320 321 322 322
286 286 284 288 289 289 286 287 286 289 290 289 285 285 283 276 278 276 278 276 276 276 280 278 279 279 281 282 284 286 286 288 287 288 290 289 289 289 290 292 292 291 290 291 292 293 293 296 297 296 296 295 296 299 301 304 305 307 308 311 314 315 314 316 317 319 320 320 321 321 321 320 318 316 316 316 315 312 314 312 312 315 318 319 319 320
283 281 283 286 288 289 290 285 282 283 286 286 286 282 280 274 274 273 268 268 269 275 277 279 280 278 279 281 288 290 294 294 291 289 289 289 289 290 292 293 293 291 290 291 292 292 293 294 295 294 294 295 296 296 298 299 301 303 305 307 310 313 310 311 313 316 317 318 319 319 319 319 317 316 316 316 316 314 315 314 313 315 318 318 320 320
279 278 286 287 285 287 289 290 288 283 283 286 284 286 280 277 273 271 268 273 273 276 276 279 278 275 277 282 284 291 292 292 291 289 289 288 289 289 289 291 292 292 290 289 289 291 292 293 294 295 294 293 294 295 295 294 296 296 299 302 305 307 305 308 311 312 315 316 315 315 316 317 316 316 315 316 316 315 313 312 312 312 315 317 319 320
282 282 283 286 286 287 288 288 289 288 287 285 285 286 282 284 281 277 274 274 271 274 275 276 278 278 282 283 287 290 289 289 289 288 287 288 289 288 289 292 294 293 292 291 291 292 291 292 292 292 293 293 293 294 294 295 295 297 298 299 302 306 305 306 307 310 313 314 314 313 314 314 313 312 314 313 311 313 314 312 313 311 314 317 317 317
281 279 284 284 285 286 287 288 290 290 283 285 285 285 285 286 283 276 275 277 274 272 274 274 278 280 280 287 292 288 287 289 287 287 287 289 289 288 291 293 293 293 292 292 292 292 292 293 293 293 294 293 294 295 295 296 295 297 296 298 299 301 300 304 305 308 309 309 309 308 311 312 313 314 314 314 312 312 311 311 310 311 312 314 316 315
282 280 283 284 285 286 285 285 288 286 288 285 281 285 284 287 285 282 276 271 272 272 274 273 278 278 278 279 284 285 285 289 288 288 288 288 287 289 292 293 293 293 292 291 292 293 293 294 295 294 294 294 295 295 295 295 294 295 296 296 298 297 301 299 302 303 304 306 307 306 308 310 313 313 313 313 312 310 310 309 310 311 312 314 315 315
286 278 283 283 284 287 286 288 289 288 288 289 286 288 287 281 280 279 276 270 269 268 266 271 275 276 277 282 280 283 285 290 291 288 286 289 288 290 292 292 291 290 290 291 292 293 296 296 296 293 295 296 295 294 295 297 299 297 295 295 296 298 299 300 301 302 303 307 308 309 309 309 309 310 310 310 310 311 311 311 312 313 311 311 310 310
285 279 278 284 284 287 287 288 284 286 287 287 287 285 285 283 281 277 278 275 276 272 269 271 273 279 281 281 283 288 287 287 289 286 288 290 291 291 291 292 292 291 292 292 292 293 295 296 295 294 295 295 297 298 298 298 298 296 295 296 296 298 300 301 302 303 305 304 306 305 305 305 307 309 311 311 311 312 312 312 311 309 309 308 308 307
283 282 276 282 285 285 283 285 286 288 285 284 283 282 284 282 282 280 277 276 277 269 267 267 271 276 280 284 288 291 292 290 288 289 289 291 291 291 291 292 291 291 292 292 293 293 294 294 294 294 294 295 295 296 297 298 298 297 297 298 300 303 303 304 303 305 306 308 308 308 309 310 310 309 311 312 312 311 309 308 308 307 305 304 303 302
282 281 280 279 281 282 282 283 284 285 290 288 286 283 284 280 279 278 279 278 271 274 271 267 276 276 283 287 291 292 293 292 290 289 289 289 290 290 290 290 290 292 292 292 292 293 293 293 292 293 294 293 295 296 297 297 299 299 299 300 302 304 305 305 306 307 307 308 310 310 310 310 309 308 308 308 308 307 306 305 304 302 301 299 297 299
283 281 281 276 281 283 286 285 284 284 284 285 285 286 286 284 281 276 277 277 275 275 274 272 271 279 285 286 289 291 292 289 287 287 289 289 288 288 289 289 290 292 293 292 292 292 291 290 291 291 293 293 293 294 295 297 299 300 300 301 301 304 303 305 306 307 309 310 309 308 307 307 306 306 305 304 302 301 301 300 299 299 299 297 295 295
291 282 278 278 282 283 283 283 285 284 286 287 285 283 283 285 285 282 276 276 280 276 276 274 274 276 280 283 284 286 284 283 283 284 287 287 288 289 288 289 291 292 292 291 290 288 287 288 288 291 294 295 295 295 296 298 299 300 300 300 301 303 303 305 306 307 308 307 305 304 303 302 301 301 301 300 299 298 297 297 297 297 296 295 295 294
286 283 284 274 274 279 281 283 283 284 285 283 283 283 282 281 279 277 275 276 277 278 280 276 277 278 285 283 284 283 285 287 288 287 286 288 288 290 292 291 291 292 291 291 290 289 288 288 290 292 292 293 291 291 295 298 299 300 300 300 302 302 303 303 304 303 302 302 300 299 300 299 299 298 297 296 296 295 295 295 295 295 295 294 293 293
283 282 283 278 276 275 274 276 279 282 283 281 281 282 282 284 281 280 278 275 274 275 279 277 280 279 280 284 287 286 285 286 285 286 286 286 288 291 291 291 291 291 292 290 289 290 292 292 289 287 289 288 288 292 294 296 297 297 298 299 298 299 298 298 299 299 299 299 298 297 297 296 296 296 295 294 294 294 294 294 294 293 293 294 292 290
283 284 286 285 283 281 283 281 284 286 283 283 282 283 283 283 281 283 278 275 280 279 277 283 283 282 282 285 285 287 285 287 289 287 288 289 288 288 289 289 289 290 291 291 291 291 289 289 290 291 289 290 288 288 291 293 294 294 295 294 295 297 297 296 298 298 297 296 296 296 295 295 294 294 293 293 293 293 293 292 292 292 291 290 290 289
284 283 286 286 286 287 284 283 284 289 286 287 285 284 285 286 284 285 283 283 286 278 279 285 284 283 282 283 286 287 285 284 284 284 284 284 284 287 288 287 290 289 289 289 289 291 293 293 290 288 288 287 289 286 288 290 292 294 295 294 293 294 295 296 296 296 295 295 294 294 293 292 292 292 292 292 292 291 291 290 290 289 288 288 288 288
287 286 286 285 285 284 281 284 286 287 288 287 287 286 285 286 284 284 285 288 286 283 282 282 283 283 283 284 287 287 287 287 286 285 285 285 286 287 287 289 289 290 289 291 293 292 292 292 290 289 287 287 286 287 286 288 289 290 291 292 292 293 294 294 295 295 294 293 292 291 291 291 291 291 291 291 291 290 290 289 288 287 287 286 286 286
290 286 286 286 285 283 283 283 286 287 284 284 286 286 286 285 285 286 287 288 287 286 285 281 282 283 284 285 286 287 285 286 287 285 283 285 287 289 289 289 290 290 291 292 293 292 291 290 289 289 288 287 287 287 287 288 290 291 292 291 291 292 292 294 294 294 293 292 291 290 290 290 290 290 290 290 289 288 287 287 286 286 285 285 284 284
290 284 287 284 281 281 282 283 284 286 285 284 284 286 286 285 286 287 287 288 286 286 282 281 282 283 287 286 286 285 285 284 285 284 285 285 287 289 289 290 291 291 292 292 291 291 291 290 289 288 288 288 288 288 289 289 289 289 290 290 290 291 291 293 293 293 292 291 290 289 289 290 289 289 289 288 287 285 285 285 285 284 284 283 283 283
288 281 284 283 282 277 280 282 281 282 283 282 283 284 285 285 284 286 285 287 285 284 284 282 282 285 285 287 287 285 283 285 287 286 285 285 286 287 289 290 291 292 292 292 292 291 290 289 289 288 289 289 288 288 288 288 288 287 288 289 290 290 290 291 292 291 290 289 288 289 289 288 288 287 286 285 284 284 284 283 283 283 283 282 282 282
283 281 280 280 282 278 278 281 280 280 280 278 281 284 286 287 287 287 287 286 288 288 284 283 285 285 287 288 289 286 285 285 285 285 285 283 284 288 290 291 292 292 293 293 292 291 291 291 291 291 289 288 288 288 287 288 288 288 287 287 287 288 289 290 289 289 288 287 288 287 287 286 285 284 283 283 283 283 283 282 282 282 282 281 281 282
285 285 282 284 281 275 277 280 280 280 274 279 290 289 288 286 286 284 285 286 287 288 288 290 287 286 286 284 287 286 286 287 290 291 289 290 287 286 289 290 291 292 291 292 293 293 293 291 288 288 288 288 286 286 286 287 288 287 286 286 285 287 287 287 287 286 286 285 285 285 284 284 283 283 282 282 282 282 282 282 281 281 281 281 281 281
287 287 283 283 280 274 276 280 280 276 277 288 284 289 290 289 288 287 288 289 289 289 290 289 284 283 286 289 288 290 290 291 287 287 286 285 287 288 290 290 291 292 292 293 292 292 291 290 288 286 286 287 286 285 286 285 285 285 285 285 285 285 285 285 285 284 284 283 283 283 283 283 282 282 281 281 281 281 281 281 281 281 281 281 281 281
287 288 281 276 277 276 275 280 274 277 285 282 283 281 285 289 289 288 286 288 289 289 289 288 290 286 287 287 288 286 287 285 284 284 286 286 285 288 288 290 291 291 292 293 293 293 291 290 290 289 288 286 286 286 286 286 285 286 285 284 285 284 284 284 284 283 283 283 282 282 282 282 282 281 281 280 280 280 280 280 280 280 280 280 280 280
291 287 286 278 275 277 277 280 281 282 282 286 283 283 285 284 283 284 282 286 289 289 289 289 290 290 287 286 284 285 283 285 287 291 286 285 286 286 290 290 291 291 292 293 293 293 291 289 288 287 286 286 286 286 285 284 285 285 284 284 283 283 283 283 283 283 282 282 282 282 282 282 281 281 280 280 280 280 280 280 279 280 280 280 280 279
288 286 283 284 274 274 277 271 272 274 277 283 284 283 288 287 290 289 286 285 289 290 291 290 289 289 289 287 285 283 286 288 287 289 291 287 286 287 286 287 286 287 288 289 289 288 287 286 286 285 287 286 285 285 285 284 285 284 284 283 283 283 282 283 283 282 282 282 281 281 281 281 281 281 280 280 280 280 279 279 279 279 279 280 279 278
282 283 285 286 277 271 272 275 274 275 280 282 283 286 288 288 289 287 281 282 289 290 290 291 289 288 289 287 286 285 286 285 287 289 288 292 292 287 286 286 287 285 285 287 288 287 285 286 286 285 285 285 285 284 284 284 284 284 284 283 282 282 282 282 282 281 281 281 281 281 281 280 280 280 280 279 279 279 278 278 278 277 278 278 278 278
282 277 280 276 270 277 277 273 276 274 278 281 283 284 287 288 291 288 273 280 284 287 288 289 289 289 289 289 287 288 288 286 289 289 288 290 293 287 288 288 285 284 285 285 285 286 285 285 285 285 285 285 286 284 284 284 284 284 283 282 282 282 282 282 282 281 280 280 280 279 279 279 279 278 279 278 277 277 278 277 277 277 277 277 278 277
277 274 277 281 278 275 281 271 269 276 280 278 279 283 285 291 289 280 277 285 285 288 288 291 290 291 291 289 288 288 290 293 290 287 289 286 288 285 282 282 283 283 284 283 284 285 285 285 287 287 286 287 285 284 284 284 284 283 282 282 281 282 282 281 280 279 279 278 278 277 277 276 277 277 277 277 277 277 276 276 277 277 277 276 276 276
274 276 271 273 275 278 277 278 277 276 280 283 279 285 288 287 276 280 286 281 283 283 284 288 290 289 288 288 288 291 292 289 281 284 285 284 285 283 281 281 281 281 281 282 283 284 285 285 285 285 284 284 284 284 284 284 284 283 281 281 281 281 279 278 277 277 276 276 276 275 275 275 274 275 276 275 276 276 275 274 275 276 276 276 276 275
282 281 278 279 274 269 267 274 270 274 281 285 286 285 286 283 285 283 280 283 282 282 285 285 288 286 289 288 288 289 290 286 286 286 284 283 283 282 282 281 283 283 282 282 282 283 285 285 285 285 284 283 282 283 283 283 283 281 280 281 280 277 277 276 276 275 275 274 274 273 273 273 274 274 275 275 275 275 275 274 274 274 274 275 275 275
284 281 276 279 281 280 278 276 278 284 284 288 290 287 287 290 286 284 287 287 284 282 285 286 284 286 288 289 288 288 288 285 284 283 282 282 281 280 280 281 280 281 281 282 283 283 283 284 283 283 281 281 281 282 282 283 282 280 280 279 275 275 275 274 274 274 273 273 273 272 272 272 272 273 273 274 274 274 274 274 273 273 274 275 276 276
284 286 285 282 280 281 281 284 282 285 288 290 291 292 293 289 283 287 288 289 287 283 282 284 287 284 286 288 287 287 286 285 287 285 286 286 282 281 282 282 282 282 282 282 282 281 281 284 283 281 279 279 279 280 280 281 281 278 279 276 274 274 274 273 273 273 272 272 272 272 271 271 271 271 271 272 273 274 274 273 274 274 275 275 275 275
280 284 279 284 282 283 285 283 281 280 282 287 283 281 287 290 282 284 285 288 285 285 285 287 285 286 285 285 286 283 285 286 285 282 282 282 282 281 280 280 280 279 279 279 279 280 279 279 279 279 278 277 277 278 277 277 278 278 277 273 274 273 273 272 272 272 272 271 271 271 271 271 270 270 270 271 271 272 274 274 274 274 274 274 274 274
282 281 283 282 280 284 282 288 284 285 284 286 288 284 281 284 284 281 283 286 286 284 285 284 285 286 286 285 287 287 286 283 284 283 281 280 281 281 281 281 280 280 280 280 280 279 279 279 279 278 278 277 276 276 275 274 274 275 273 273 273 273 272 272 272 272 271 271 270 270 271 271 271 271 270 270 271 271 272 274 274 274 273 273 273 272
283 283 286 280 282 284 286 284 282 282 283 286 286 285 288 286 283 282 282 282 282 282 284 284 282 283 283 284 286 286 284 282 283 282 282 282 282 281 281 281 280 279 278 278 278 278 278 279 280 279 278 278 276 275 274 273 273 272 272 272 272 271 272 271 272 271 271 270 270 271 271 272 272 272 271 271 271 272 272 273 274 273 272 272 273 272
284 287 283 282 284 285 283 279 280 283 286 285 285 284 284 286 288 287 283 282 281 284 283 281 281 282 284 287 285 284 282 281 283 284 283 282 281 281 281 281 280 280 279 278 278 278 280 279 279 278 277 277 275 273 273 271 270 271 272 272 271 271 271 271 271 270 270 270 270 270 271 271 271 271 271 271 271 271 272 272 272 273 272 272 271 271
285 284 283 283 282 282 284 285 284 282 280 285 287 289 289 286 286 285 281 282 283 284 282 285 282 280 281 282 284 285 286 284 282 282 283 283 283 282 281 281 280 279 278 277 277 277 277 277 278 277 277 276 273 272 271 269 269 270 271 271 271 271 271 271 270 270 269 269 270 270 270 270 271 271 271 271 270 270 270 272 273 273 272 271 273 274
287 285 284 284 284 284 288 286 288 290 288 286 290 290 288 284 285 285 286 285 285 285 284 285 284 282 282 281 280 284 285 284 283 282 282 282 282 281 281 280 279 278 278 276 276 275 276 276 275 275 275 274 271 271 270 269 269 269 270 270 271 271 271 271 270 270 269 269 270 270 270 271 271 271 271 272 271 271 271 272 274 276 276 275 276 277
Wind_Speed
4 8 11 13 10 13 11 8 4 2 5 6 4 5 8 6 5 3 4 1 1 2 8 8 8 11 12 9 9 1 0 2 4 7 9 8 7 7 8 10 12 11 16 9 5 6 9 11 10 9 9 9 9 10 10 11 11 11 12 11 13 11 9 9 9 9 9 10 8 7 11 11 9 8 7 8 7 8 8 8 8 8 8 8 8 7
6 9 11 3 3 5 5 4 2 4 3 1 2 4 7 6 8 3 2 1 2 4 3 2 5 11 14 10 10 1 1 7 8 10 10 10 9 8 9 12 13 14 6 5 6 7 7 8 10 9 9 9 11 11 10 12 13 12 12 13 12 9 9 11 11 11 10 10 11 10 10 8 7 8 8 9 7 8 7 8 9 8 8 8 8 7
9 13 6 6 5 5 5 5 5 5 7 4 5 3 4 6 2 6 1 1 1 2 7 1 4 10 15 11 8 4 7 7 7 9 10 10 8 8 10 11 12 7 11 8 10 6 7 9 10 10 10 11 13 13 13 13 12 12 12 12 10 10 10 11 11 11 11 10 9 9 7 9 5 5 7 7 6 6 7 7 8 9 8 8 8 8
6 9 11 7 7 8 5 6 6 5 6 7 4 4 6 2 4 5 1 0 1 2 1 0 3 9 11 6 9 9 8 9 11 8 8 7 10 12 14 14 11 11 13 13 12 12 11 9 10 9 11 12 11 11 10 12 13 11 12 11 11 11 11 11 12 11 11 10 8 6 5 6 7 6 5 5 4 7 7 8 7 7 7 8 8 7
12 2 6 7 6 9 11 7 8 9 10 7 6 4 2 2 2 4 3 1 1 0 2 1 4 6 8 10 6 6 3 7 10 5 6 7 9 11 7 4 9 14 14 13 11 10 7 7 11 14 14 11 12 13 13 13 13 11 13 13 13 13 13 11 10 11 9 6 5 4 2 3 2 1 3 5 8 9 8 8 8 7 5 7 7 7
5 4 7 10 6 8 9 10 13 9 8 6 5 8 4 2 4 2 0 3 0 3 1 1 3 6 5 6 9 9 3 5 4 5 11 12 11 10 10 14 11 10 8 11 12 12 11 12 10 10 10 11 12 12 13 12 13 12 12 12 12 11 10 11 11 11 10 9 10 8 8 8 7 9 7 11 14 9 9 9 4 5 7 6 7 6
6 2 9 10 8 6 10 11 10 10 9 7 7 8 6 7 4 2 2 3 2 5 2 1 9 7 5 5 6 5 3 10 8 4 10 10 11 10 12 13 13 12 11 8 8 6 7 9 7 9 10 12 13 14 11 11 12 12 12 12 13 11 10 10 10 10 10 9 9 12 13 12 12 11 10 8 4 6 4 4 5 5 5 6 6 6
5 5 4 7 6 8 6 10 8 11 7 7 2 9 9 5 4 6 7 8 4 1 1 1 2 5 6 10 3 2 4 8 10 9 11 12 11 11 11 13 12 12 11 11 12 11 11 10 12 14 15 14 16 14 11 11 10 12 13 11 12 11 11 10 10 10 11 12 11 11 11 11 11 12 12 6 4 3 4 5 5 4 5 6 6 6
14 7 10 9 10 9 14 8 4 10 9 3 3 9 9 10 9 7 7 5 2 1 7 2 0 2 6 8 3 0 4 7 10 10 10 11 10 11 12 13 13 12 11 11 12 13 13 12 13 13 12 14 13 10 10 12 12 11 11 11 10 11 10 8 9 10 11 11 12 12 11 10 9 9 6 3 4 5 4 5 4 5 5 5 6 6
4 14 16 14 11 16 8 5 8 11 7 4 4 5 5 6 4 5 6 6 1 2 10 7 4 4 8 5 5 1 2 6 9 11 11 10 9 8 9 10 11 8 8 9 12 10 9 10 10 10 7 5 8 7 6 6 5 6 6 9 10 11 9 9 10 11 11 12 10 10 10 12 9 5 3 4 4 4 4 5 6 5 5 5 5 6
2 6 5 6 10 5 5 2 4 11 5 4 6 5 3 5 3 3 4 3 3 7 11 5 6 4 6 6 9 6 6 8 9 8 6 6 5 7 9 10 8 7 8 9 10 10 10 6 6 4 8 9 5 5 6 6 6 6 7 9 11 11 9 9 11 11 12 11 10 11 11 11 10 7 6 5 4 4 4 6 6 6 6 5 6 6
2 2 4 2 4 3 5 3 4 1 3 10 2 4 5 1 4 2 1 2 4 9 3 1 3 1 9 5 6 7 7 6 9 11 12 8 6 6 6 6 7 7 7 7 6 9 8 6 6 4 7 7 7 5 7 7 6 7 8 8 10 9 9 8 9 10 11 10 11 10 10 10 9 8 8 9 8 7 7 6 7 5 5 5 6 6
0 2 2 2 4 9 4 7 1 2 4 4 4 7 9 3 2 4 1 6 10 6 1 0 2 1 14 5 7 9 8 9 8 9 9 6 7 7 6 6 5 4 5 5 7 6 5 7 7 7 7 5 5 8 8 9 8 7 7 8 10 10 7 8 8 10 10 9 10 10 10 8 7 8 8 8 7 7 7 7 6 6 7 5 6 6
8 2 2 3 1 5 10 11 5 3 6 7 9 7 7 4 5 7 3 2 4 5 4 1 0 6 2 6 12 18 18 17 10 8 9 9 8 8 8 5 5 4 2 4 4 4 4 4 4 3 3 4 4 4 5 5 6 6 6 7 9 8 6 6 6 8 8 9 9 8 8 8 7 8 8 8 8 8 7 7 8 8 8 8 8 7
12 5 12 11 5 3 8 11 9 6 5 6 2 8 7 4 4 6 4 8 6 7 1 3 1 8 5 5 7 14 9 8 6 7 7 7 8 8 6 6 6 6 5 3 3 3 4 4 4 4 4 3 3 3 3 4 4 4 5 5 7 6 6 7 7 6 8 8 7 7 7 7 6 7 7 7 8 8 8 7 7 7 6 7 7 7
15 8 4 2 1 3 9 1 5 8 6 7 4 4 4 11 5 5 6 4 4 2 1 2 7 3 5 3 8 8 8 8 7 7 5 9 7 6 7 7 6 5 5 3 3 3 3 4 3 3 3 3 2 2 1 2 3 5 6 6 7 8 7 7 7 7 8 8 7 7 8 8 7 6 7 6 6 6 7 7 8 7 7 6 6 5
3 8 0 5 3 4 4 2 2 6 8 4 6 12 8 2 6 6 2 0 1 2 9 2 6 6 7 9 13 4 2 8 5 5 5 8 6 3 7 7 6 6 5 4 4 3 3 1 1 2 2 2 2 2 3 3 3 4 5 5 6 5 5 7 8 8 7 6 6 6 6 6 7 8 8 8 8 8 6 6 6 6 6 5 5 5
13 3 2 3 4 0 3 3 0 3 2 7 5 9 2 2 4 5 6 1 1 6 7 3 8 3 0 8 4 7 5 9 6 7 7 5 2 5 8 7 7 7 6 3 3 3 3 1 1 1 2 2 3 3 3 3 3 3 4 5 5 4 6 4 5 5 5 6 6 6 6 7 9 9 8 8 7 5 6 4 4 5 6 5 6 6
8 3 1 1 1 2 1 3 0 1 1 7 8 5 7 5 8 2 5 3 5 5 4 2 1 4 7 8 4 4 8 11 11 6 3 6 5 8 8 8 6 5 4 5 4 3 1 1 1 1 2 1 1 1 0 1 1 2 2 2 4 5 4 5 4 4 4 6 7 7 8 9 7 5 5 4 5 6 6 6 6 6 6 6 7 7
2 7 2 1 3 1 1 4 11 8 1 1 2 3 1 3 3 4 7 3 5 7 1 9 1 9 8 7 7 11 8 8 8 5 8 9 9 8 8 7 7 7 6 5 4 3 1 1 1 1 1 1 1 1 1 2 2 3 3 4 4 4 4 5 5 6 6 4 5 5 4 3 4 5 6 7 7 7 7 7 8 8 7 6 6 7
2 2 5 1 1 2 4 4 13 14 9 2 2 6 1 0 2 4 1 4 5 5 4 2 5 7 7 8 10 15 15 11 9 9 8 8 8 8 8 8 7 6 6 5 3 3 3 2 1 2 2 2 2 2 2 2 3 3 3 4 5 7 6 5 5 5 5 6 6 7 6 6 6 6 6 7 7 8 7 7 7 7 7 7 6 6
4 2 9 2 3 6 4 1 1 1 8 9 9 7 7 6 3 6 10 3 1 2 5 3 15 1 6 6 14 17 14 11 8 6 6 6 7 8 8 7 6 6 4 3 3 3 3 2 3 3 2 2 3 3 3 2 4 3 3 4 4 5 5 6 5 6 6 6 7 7 8 7 6 7 7 8 8 8 7 7 7 8 7 8 4 5
6 3 9 4 6 6 0 2 0 0 1 1 5 9 10 5 5 4 10 8 1 2 4 3 4 11 7 8 12 12 10 4 0 4 6 6 5 6 7 5 3 1 1 3 3 3 2 2 2 3 3 3 3 3 3 3 3 4 3 4 4 6 4 5 6 6 7 7 8 8 8 8 8 8 8 9 7 8 7 7 7 6 9 8 7 5
7 5 6 2 2 2 3 1 0 1 0 1 4 1 6 13 11 9 4 6 7 2 3 3 6 6 3 2 5 6 4 4 4 2 5 6 5 5 5 3 0 1 3 4 3 3 3 3 2 3 4 3 3 3 3 3 3 3 3 4 5 6 6 6 6 6 7 8 8 8 8 8 7 9 8 9 6 8 6 6 6 6 9 8 7 8
8 4 11 4 3 2 6 4 3 2 0 5 5 5 3 2 4 2 4 1 3 9 8 6 20 1 2 4 0 2 5 7 6 5 5 7 6 2 2 1 2 3 4 4 4 4 4 3 4 5 4 4 3 3 4 4 4 4 4 4 6 5 5 5 6 7 6 8 8 6 7 7 6 8 7 8 7 8 7 7 7 7 9 8 8 8
3 4 8 10 13 13 11 14 19 18 15 2 1 2 4 6 6 5 5 1 4 3 8 8 12 4 5 4 1 2 2 4 5 5 4 4 3 1 0 2 3 3 4 4 4 4 6 6 4 3 3 3 3 4 4 3 4 4 4 4 4 6 5 5 5 6 7 7 8 6 7 7 7 8 8 8 8 8 7 7 8 8 6 9 10 8
3 3 6 8 12 13 15 1 6 11 5 6 3 6 4 2 5 2 3 3 13 5 6 15 8 5 3 1 2 6 4 7 7 3 2 3 1 0 1 2 3 4 4 5 5 4 2 2 5 4 4 4 4 4 4 4 4 4 5 4 3 4 5 4 6 5 6 5 7 7 6 7 7 7 7 7 8 7 7 7 8 9 8 7 9 9
5 2 8 11 14 15 4 4 5 12 13 16 13 10 11 12 11 11 11 17 13 8 12 18 9 9 5 5 7 7 5 5 5 3 2 2 2 2 2 2 2 2 2 2 3 5 8 6 4 5 5 4 4 3 3 3 4 4 6 5 3 4 5 5 6 6 6 7 6 6 6 6 7 7 7 7 8 8 8 8 9 9 8 8 9 9
6 11 7 7 11 3 1 7 9 6 9 9 16 16 15 14 11 15 19 28 9 11 19 4 12 7 6 8 8 9 5 5 2 3 6 3 2 3 3 4 4 5 4 5 7 6 6 7 6 6 6 6 5 5 5 4 4 3 4 4 4 4 6 6 8 8 8 7 8 7 7 7 6 7 8 8 9 9 9 9 8 8 8 9 8 8
7 9 8 10 10 4 2 6 7 10 3 5 11 14 14 12 17 22 26 25 19 16 6 1 1 6 6 7 8 7 4 3 1 1 1 3 4 5 5 5 6 7 8 9 8 7 6 6 6 7 7 6 7 6 6 6 6 6 7 6 4 4 4 6 8 9 8 8 8 7 7 7 7 7 8 8 9 9 9 9 8 9 9 9 8 8
9 8 11 6 5 5 1 1 2 6 11 7 8 13 13 14 18 24 25 19 11 14 5 1 4 6 6 5 7 4 1 1 1 2 2 4 5 7 6 7 8 9 9 8 7 9 8 7 7 7 8 9 9 9 8 7 6 5 5 5 6 5 4 4 7 7 8 8 7 7 7 7 7 7 8 7 8 7 9 9 9 9 9 9 8 9
6 2 2 6 9 4 1 5 2 3 1 3 7 11 16 22 23 25 19 14 9 16 10 5 9 13 4 7 5 2 2 3 5 6 4 5 6 5 5 7 8 10 10 11 10 7 8 10 9 11 13 11 9 8 8 8 7 6 6 6 6 6 5 4 6 6 7 8 8 8 8 8 8 8 7 7 7 7 7 8 9 9 9 9 9 8
4 6 6 5 10 6 1 4 6 5 3 3 10 19 27 24 21 12 10 9 19 17 10 15 23 3 6 9 10 4 2 6 6 5 5 4 5 6 8 10 10 10 10 10 10 12 13 14 15 14 9 6 8 8 6 7 9 9 8 8 6 6 6 6 7 7 7 7 8 8 8 8 8 8 8 7 7 7 7 8 9 10 10 10 8 8
7 10 6 6 8 1 1 6 3 5 8 16 16 14 15 20 20 13 12 14 15 6 15 17 8 6 6 5 8 7 7 8 9 9 5 6 7 7 8 8 9 10 8 8 11 14 13 8 6 6 6 6 5 5 5 6 7 7 6 7 6 7 6 8 7 7 7 6 6 8 8 9 9 9 8 7 7 7 7 8 8 8 8 9 8 10
13 9 6 4 4 4 2 4 5 10 14 13 3 10 21 18 11 20 26 19 18 18 19 14 1 6 9 11 11 12 12 11 5 3 3 6 6 9 11 13 12 10 12 12 12 11 10 9 5 5 6 8 8 6 6 5 5 7 7 7 8 6 8 7 8 7 7 7 6 7 9 10 10 10 9 8 8 8 8 8 8 9 7 8 9 10
14 15 7 4 6 5 4 7 6 17 9 2 3 2 3 11 17 16 17 18 17 16 16 16 16 7 10 11 10 4 6 4 3 6 9 7 7 9 9 10 12 10 11 11 12 12 10 12 15 15 11 6 8 7 6 7 7 8 7 6 8 7 7 8 8 8 7 8 8 8 9 11 11 11 10 10 9 9 9 8 9 10 8 8 7 6
14 8 9 4 0 10 8 14 15 4 8 10 5 5 9 10 7 12 12 17 15 14 14 18 19 14 10 5 4 1 1 1 2 9 6 6 10 11 13 12 11 11 10 8 8 9 6 5 5 6 7 8 8 9 7 6 7 8 9 8 7 8 8 9 9 9 9 9 9 9 10 11 13 12 11 10 10 10 9 9 8 7 6 9 8 8
8 14 5 12 3 5 8 3 3 5 13 21 4 2 2 5 11 11 9 15 7 15 16 14 12 12 14 8 7 4 1 1 8 11 9 8 10 11 7 7 4 3 6 7 4 3 5 6 6 7 10 10 9 9 8 8 9 9 10 9 9 10 9 9 10 9 9 9 9 9 9 10 12 13 11 10 11 10 7 6 5 6 5 9 10 9
5 2 8 13 6 4 4 9 10 12 18 2 7 9 10 9 12 8 3 16 10 14 14 18 12 10 14 13 9 5 4 9 16 12 6 11 11 7 6 8 8 5 4 6 7 6 6 7 9 8 8 10 11 10 10 10 11 11 11 10 10 9 11 11 10 11 11 10 8 7 8 8 9 10 10 10 8 8 9 8 7 6 6 6 8 9
6 3 5 4 5 8 9 7 12 6 6 3 6 7 10 10 14 9 2 16 1 10 9 11 13 16 15 14 12 12 15 14 18 9 7 10 12 5 8 9 6 4 2 1 2 5 8 9 11 10 11 13 14 12 12 11 10 10 10 10 9 11 12 12 10 8 6 6 6 5 6 6 7 7 9 10 9 7 8 7 8 8 8 7 7 9
4 0 4 14 10 5 8 5 4 8 4 4 6 4 9 13 13 8 18 12 7 10 14 17 19 20 19 15 14 14 17 15 4 6 10 5 2 1 1 1 2 3 5 5 6 8 9 9 12 15 16 13 12 12 12 11 11 11 10 10 11 13 10 7 7 7 7 6 6 5 6 5 6 9 7 8 10 8 7 7 9 9 9 9 7 8
1 5 2 4 7 11 9 10 10 6 6 9 0 12 13 9 7 19 7 1 7 5 3 9 12 9 8 11 12 13 12 5 3 1 2 5 5 1 3 3 3 3 2 2 6 8 8 8 7 6 6 7 11 12 11 12 12 10 11 11 13 9 6 8 8 7 8 7 7 6 6 7 6 6 9 8 9 10 8 5 6 7 8 7 8 9
14 12 11 11 3 5 3 6 1 13 6 10 14 2 6 7 11 4 1 1 1 3 8 5 7 7 11 11 13 14 10 3 6 6 5 3 4 5 6 6 6 7 7 6 6 5 9 9 10 10 10 8 9 9 10 11 12 11 10 12 8 7 8 8 8 8 8 7 7 6 7 6 8 8 7 8 8 10 10 7 7 6 7 9 8 9
6 8 4 6 8 14 14 13 13 8 10 15 21 13 13 14 3 7 7 2 1 4 7 7 5 8 10 11 12 11 9 5 1 4 4 3 3 3 3 3 2 3 3 3 4 8 6 7 6 6 5 7 8 9 10 13 13 11 11 10 6 8 8 9 8 8 8 8 7 7 7 7 7 7 6 8 9 8 10 9 7 7 7 7 8 9
8 13 8 14 5 8 11 13 3 5 15 14 12 10 17 10 4 9 8 7 7 5 4 3 8 6 9 10 9 11 7 8 9 7 9 9 7 7 8 8 7 7 6 7 6 5 5 8 9 8 6 6 7 7 8 7 11 10 11 7 8 9 10 9 9 9 9 9 8 8 7 6 6 6 6 6 8 10 9 9 9 9 6 7 6 7
1 4 4 5 5 5 6 1 1 1 1 8 3 1 5 10 2 1 6 6 5 5 10 9 7 9 8 6 8 3 8 8 8 5 6 4 6 5 3 3 3 3 4 4 4 6 5 5 6 7 9 6 6 7 5 5 7 13 8 8 8 9 10 11 11 10 10 9 8 8 8 9 7 6 5 5 4 5 7 10 10 9 8 6 6 7
3 3 3 4 1 7 11 11 8 6 3 8 10 1 2 1 4 3 3 5 5 7 8 5 7 10 12 10 10 10 9 6 8 6 5 4 6 7 7 7 6 7 8 9 7 8 7 8 9 10 10 11 7 7 6 5 5 6 8 10 9 10 11 11 11 11 10 10 8 7 8 10 9 8 6 4 5 5 5 5 6 8 8 7 9 8
3 4 7 3 7 11 15 4 1 1 3 6 6 4 2 4 3 4 4 2 1 3 4 3 2 3 5 7 9 8 6 5 7 8 7 8 8 7 8 8 8 6 5 4 6 7 6 9 11 11 11 11 9 7 6 5 6 7 9 9 9 10 10 11 11 12 11 10 8 8 8 8 10 10 8 6 6 7 6 5 5 8 11 11 12 11
5 10 6 8 9 8 3 2 1 4 1 2 2 6 6 6 8 8 5 2 2 4 3 2 1 4 8 9 7 5 5 7 8 8 8 6 5 7 9 9 8 7 7 9 9 9 11 10 10 10 10 9 7 7 7 6 6 8 11 10 10 11 12 11 9 8 8 8 8 8 7 7 8 8 8 7 6 3 2 6 7 7 3 0 0 1
9 10 3 6 8 9 15 11 10 5 4 8 10 16 15 10 6 4 2 1 4 6 5 7 1 0 3 3 8 9 9 7 6 6 8 9 9 9 7 8 8 8 7 5 6 6 5 7 8 9 10 8 7 8 8 7 7 7 8 9 10 11 12 11 10 9 9 8 8 8 8 7 7 7 7 8 9 9 6 4 4 2 4 4 4 5
13 11 10 11 11 14 14 8 13 12 8 7 14 13 9 6 7 8 9 8 8 6 7 9 6 1 3 3 2 7 7 7 8 6 5 6 7 5 6 7 9 9 8 8 8 8 8 7 6 6 7 8 7 8 7 7 7 8 8 9 10 11 11 11 11 9 9 9 9 10 9 8 8 7 7 7 8 8 8 7 5 6 7 7 7 8
Wind_Direction
145 188 198 201 192 194 194 196 172 206 174 172 180 179 213 208 255 261 244 275 251 131 222 212 223 240 248 246 261 272 242 253 245 236 235 237 229 224 231 232 233 231 234 240 234 224 219 219 217 216 212 215 213 213 208 206 209 208 206 201 209 203 195 188 189 191 189 193 197 206 206 210 204 205 202 209 208 206 208 200 201 202 204 200 198 192
143 203 218 207 198 192 179 136 148 274 277 200 201 198 220 202 221 227 213 351 318 175 274 239 233 257 258 263 267 249 239 255 236 232 234 233 224 225 224 235 235 235 261 278 259 228 220 216 213 210 211 209 211 216 209 207 207 208 208 207 209 197 194 196 197 194 195 197 199 197 209 205 199 199 204 212 208 211 206 203 204 205 204 203 200 193
194 211 188 203 182 155 167 146 166 198 254 237 220 212 218 249 265 287 270 300 333 114 263 48 206 253 260 259 267 214 227 241 235 221 225 216 227 230 230 236 241 247 248 242 240 237 224 218 213 205 209 211 212 211 208 209 206 208 210 212 207 201 196 202 200 195 201 203 203 198 198 192 200 214 211 213 208 203 210 211 208 205 202 203 208 195
197 226 206 180 155 159 176 170 171 205 237 242 229 188 226 198 151 275 314 40 357 135 273 163 239 275 279 267 258 246 216 236 240 233 241 209 219 223 225 222 224 232 239 238 231 227 221 211 209 207 211 213 208 212 210 209 208 207 209 208 206 205 203 203 201 200 205 202 198 203 184 188 183 190 194 205 208 207 208 217 214 218 206 200 204 198
199 182 164 158 162 166 186 189 188 198 224 236 209 198 180 188 249 181 259 30 311 347 91 50 334 295 263 272 282 265 241 258 267 262 262 248 235 239 256 272 218 226 227 235 235 234 224 212 213 208 210 204 208 209 208 206 206 205 205 205 204 205 205 204 197 198 195 180 174 160 93 108 121 47 170 201 222 214 209 212 210 211 200 207 207 202
228 232 142 160 170 177 178 201 207 191 225 242 232 200 194 187 216 254 327 146 356 296 307 157 325 279 281 275 245 257 347 277 255 220 247 243 237 237 242 241 240 237 231 226 229 224 217 216 219 215 210 207 213 213 212 206 208 204 204 204 207 209 205 204 198 193 186 187 182 174 182 186 198 209 195 206 213 208 209 213 185 190 200 208 211 203
187 209 172 180 170 191 195 208 208 183 206 200 253 177 202 214 207 150 161 108 240 224 287 34 207 269 323 284 246 269 309 269 284 254 256 248 242 233 234 238 238 234 237 240 249 241 224 228 225 228 218 213 212 218 207 206 207 206 206 203 203 204 205 203 199 188 186 189 192 193 198 203 205 213 223 224 209 209 205 173 191 187 184 204 210 212
154 142 173 176 184 189 205 219 213 181 176 228 242 168 186 175 170 195 178 192 231 283 296 65 152 215 272 262 253 315 309 282 288 273 257 250 241 235 233 237 238 234 230 227 229 225 222 217 207 214 212 209 214 213 204 207 203 203 206 201 202 202 203 201 195 190 190 193 195 199 206 207 209 210 223 204 187 160 164 181 188 180 187 192 201 207
154 188 175 191 191 198 214 200 136 171 181 216 188 154 168 182 192 181 176 194 228 156 261 255 174 249 240 266 301 335 282 276 266 263 259 249 239 236 237 239 237 232 229 220 225 222 217 213 214 218 216 217 218 211 204 205 203 202 201 201 199 203 200 198 191 191 195 199 198 202 204 212 220 218 218 156 149 156 163 184 187 188 187 184 192 197
262 188 188 178 182 209 197 169 176 168 186 260 130 79 79 70 72 147 164 161 220 163 238 210 181 220 277 272 300 338 248 268 264 259 249 249 242 241 250 255 249 244 236 227 229 232 225 222 223 221 231 237 223 215 219 222 205 203 195 199 198 203 196 194 192 192 197 199 197 203 205 211 213 200 171 149 158 165 166 187 194 197 191 185 186 193
200 353 144 151 201 197 141 210 164 182 188 110 112 80 36 45 85 51 81 114 81 238 236 209 210 190 283 236 220 197 219 208 251 272 273 260 275 260 247 246 246 241 233 228 229 229 230 230 238 221 216 225 220 210 200 205 201 194 194 197 201 205 195 191 194 190 198 196 198 206 205 208 209 189 174 166 170 161 165 192 198 197 199 186 192 190
18 28 134 262 39 101 152 141 11 48 132 136 131 128 90 9 17 43 339 49 189 247 263 278 197 139 221 290 272 231 252 223 221 241 253 270 276 271 268 250 247 242 238 240 238 240 236 252 249 223 234 226 218 198 202 202 194 195 197 192 203 205 197 192 193 192 198 194 200 207 204 206 204 183 183 188 188 181 186 192 196 195 190 199 194 191
24 188 246 319 225 146 138 155 304 96 176 150 106 127 158 238 84 226 69 214 216 214 214 343 175 13 244 226 275 260 246 264 230 227 242 241 268 284 286 273 259 245 254 243 234 238 233 221 219 214 231 220 210 205 205 203 196 195 192 193 198 207 193 190 188 194 195 195 201 201 202 205 191 184 184 188 189 185 190 190 187 181 196 190 195 197
250 285 281 243 17 229 155 181 174 146 215 158 162 168 151 152 188 206 248 336 326 278 273 230 31 265 274 289 237 256 251 243 242 229 237 242 248 264 276 297 307 301 255 244 249 243 232 222 224 228 221 211 209 212 210 211 201 198 195 194 197 208 183 184 185 191 192 200 200 196 198 195 180 187 182 186 188 192 195 188 190 190 192 193 200 194
179 215 232 164 218 170 176 198 177 146 124 206 85 152 183 146 167 207 186 199 213 203 255 280 108 233 129 244 218 235 261 278 267 242 239 239 243 256 279 289 288 286 289 247 252 242 235 238 223 221 217 212 209 200 193 192 200 188 202 191 196 196 189 179 189 185 194 197 193 190 191 186 181 181 182 188 192 189 192 193 190 195 191 192 196 196
203 207 301 46 211 144 175 256 130 114 127 203 171 75 152 219 128 179 205 157 197 175 267 215 209 182 176 247 283 243 254 270 257 260 251 260 249 256 277 265 255 258 265 271 265 279 266 246 248 259 265 253 240 239 221 195 173 179 196 189 195 196 189 186 184 191 191 197 190 187 184 185 177 176 179 188 195 197 191 190 189 191 190 191 183 178
120 234 326 321 101 124 161 122 180 156 193 208 117 202 216 85 101 91 54 264 116 45 252 143 311 282 299 312 277 290 283 266 250 252 242 249 254 239 243 246 244 245 253 256 255 260 273 286 247 233 246 261 243 208 205 204 190 186 172 178 188 195 185 189 192 191 193 184 176 182 176 170 174 176 182 189 193 194 189 179 184 177 177 164 160 157
165 161 354 118 150 333 152 159 139 46 155 99 190 224 184 135 115 142 208 342 140 202 255 98 217 286 134 258 303 320 288 270 263 237 231 251 266 229 237 236 233 230 233 254 268 259 256 241 187 196 228 220 214 220 207 212 210 185 172 169 168 166 176 194 176 171 164 158 166 167 175 181 183 184 189 186 183 169 153 152 145 138 145 158 147 139
122 69 270 10 108 278 12 110 41 338 149 182 195 180 141 215 232 271 105 217 186 231 272 299 276 258 189 227 342 284 249 250 252 242 255 255 239 234 235 241 246 259 275 263 256 246 230 184 165 154 191 261 238 218 176 87 121 129 143 158 156 169 168 161 157 150 155 163 167 175 179 181 181 177 165 157 148 147 146 144 143 139 134 124 125 118
118 147 295 319 131 260 23 133 195 205 324 88 66 183 199 114 206 139 206 173 137 248 185 284 28 246 190 208 209 262 246 241 254 247 222 225 221 221 227 232 229 230 230 238 237 209 187 184 191 173 137 75 72 82 99 122 119 115 131 124 110 102 118 129 140 148 148 153 143 134 118 122 143 148 144 143 140 136 134 137 130 127 119 117 109 108
147 114 164 266 298 93 166 211 207 178 170 196 153 197 213 343 229 112 30 142 189 186 185 217 276 255 242 210 198 227 243 236 216 225 226 226 228 226 226 223 222 223 226 226 206 169 166 166 105 69 87 125 116 103 96 107 128 142 129 130 146 141 142 139 142 131 128 126 124 126 128 126 125 120 120 117 120 120 119 115 113 106 115 103 94 109
113 180 160 139 83 211 245 269 202 172 190 177 169 198 173 104 109 184 239 39 95 158 231 144 253 270 256 191 199 215 230 237 223 198 231 243 238 232 235 236 223 228 223 194 164 156 163 106 84 81 81 79 90 76 85 97 112 109 116 131 127 122 132 133 130 128 126 122 121 118 114 108 106 112 110 110 111 113 115 117 116 122 110 100 89 103
138 109 98 155 206 189 166 360 340 223 54 179 173 204 173 183 113 144 218 228 48 264 108 161 280 262 234 190 207 218 230 251 328 183 227 250 245 243 244 231 228 228 166 154 138 128 97 105 120 129 120 107 107 109 109 100 105 113 115 112 118 118 116 123 126 124 124 120 114 112 113 114 116 116 115 111 113 112 114 112 111 113 108 105 100 77
93 105 79 333 335 308 313 306 120 27 47 275 270 164 155 198 196 190 167 180 177 206 234 260 261 261 283 18 258 262 295 306 265 210 234 261 271 263 257 292 357 100 80 93 92 92 115 141 148 132 134 129 127 125 118 115 109 115 118 118 114 112 119 119 119 120 116 113 112 118 117 115 119 116 117 115 115 111 107 105 102 105 101 102 104 100
162 236 135 113 50 357 338 336 349 352 83 215 200 193 182 99 72 149 107 73 169 219 187 120 246 216 266 326 277 247 260 270 267 248 212 242 271 311 355 43 100 114 109 113 120 134 136 149 163 173 168 156 140 117 125 126 131 126 121 121 117 114 119 114 112 110 111 116 112 108 108 105 105 105 102 107 110 110 108 108 105 95 104 102 91 96
79 180 134 165 168 175 194 201 209 205 202 150 56 107 168 152 146 129 187 159 203 265 165 214 241 251 284 313 291 254 285 290 261 244 259 229 275 352 47 96 105 133 151 147 147 153 179 191 190 169 167 156 161 155 144 140 138 131 121 123 129 124 112 114 109 113 113 114 115 111 111 113 110 111 115 114 113 114 113 110 106 102 89 107 105 95
137 133 176 174 189 202 212 195 58 87 75 191 210 133 152 131 184 121 115 153 226 198 193 234 208 216 262 295 251 245 209 219 243 242 242 260 284 22 95 111 154 165 168 178 184 193 168 192 199 193 185 179 174 169 159 152 145 138 125 122 125 129 125 126 115 113 112 109 114 118 118 120 118 119 120 120 119 116 109 104 104 103 104 102 110 111
109 135 210 199 206 215 167 154 208 149 174 198 173 181 179 177 185 178 190 228 208 83 251 235 175 199 234 249 238 232 240 267 262 269 289 287 276 193 131 183 154 135 192 190 197 193 197 197 196 197 192 178 179 162 148 155 155 151 143 141 135 130 128 127 121 119 117 119 113 114 116 115 116 117 119 116 110 108 106 104 101 104 109 109 105 109
159 204 209 186 228 191 30 165 167 176 194 191 187 189 185 186 170 190 214 225 169 192 225 113 159 180 227 224 224 223 213 232 231 225 221 198 110 92 157 162 178 202 210 211 215 211 202 200 197 196 193 194 178 173 167 156 142 131 124 136 145 146 142 139 128 127 125 123 125 127 124 118 112 118 114 114 113 110 110 109 109 108 105 102 103 102
151 217 182 182 214 173 217 181 172 166 162 134 186 198 196 180 196 206 221 225 207 224 227 123 34 209 213 227 220 234 197 205 237 237 78 119 149 180 178 181 202 212 212 216 217 214 214 211 204 203 194 195 192 179 172 167 164 165 157 158 151 143 149 139 135 133 132 129 129 128 126 121 120 122 121 117 117 119 118 115 113 110 106 102 104 105
164 216 147 160 173 221 293 322 223 180 161 182 200 189 185 197 213 219 225 229 224 250 224 112 350 299 263 209 238 236 241 276 321 253 190 190 180 187 178 201 214 217 220 219 215 215 211 210 208 203 203 202 194 188 177 173 168 159 150 147 146 148 155 145 136 134 133 129 128 125 121 119 120 120 117 116 115 118 117 117 114 109 106 105 104 105
177 213 95 130 184 238 257 157 169 74 100 188 196 197 199 203 212 220 221 220 207 230 226 283 278 243 253 271 276 135 137 177 215 223 188 204 206 181 193 224 223 224 221 217 215 209 210 210 207 205 207 201 193 185 177 169 164 156 159 154 152 149 136 132 131 129 127 128 129 127 126 123 120 114 112 111 112 113 112 112 111 108 108 108 104 99
124 120 143 159 182 219 342 127 110 92 82 288 243 214 207 209 215 227 234 213 216 212 199 219 234 131 184 207 215 262 238 235 239 229 206 219 219 198 209 222 227 228 224 214 209 212 211 209 207 206 200 184 189 190 187 165 157 170 164 158 154 134 136 132 130 128 130 140 137 133 129 128 123 119 115 113 112 112 113 113 110 112 114 111 114 111
130 138 157 159 180 179 94 136 110 108 203 226 227 204 191 205 211 210 225 220 232 158 222 226 231 183 168 152 186 205 210 226 220 231 198 184 195 217 238 241 237 231 226 220 217 215 217 211 208 200 195 188 173 177 175 177 167 155 148 142 137 140 136 133 132 133 138 141 140 134 131 127 124 121 119 118 116 116 115 114 114 114 115 117 116 113
160 155 159 165 130 152 194 103 134 213 232 240 54 177 194 205 183 201 221 218 220 216 229 236 213 163 171 186 188 199 201 218 231 239 248 229 185 193 209 222 229 226 219 217 220 221 213 197 182 172 181 183 171 164 158 156 145 137 136 144 139 139 134 134 134 135 142 144 146 141 136 131 129 128 129 126 124 122 122 123 124 123 128 127 129 129
172 175 141 93 115 62 106 160 178 225 234 357 239 332 175 175 200 207 235 235 227 223 221 225 223 191 197 201 207 214 200 250 324 262 234 232 195 200 209 223 226 219 223 221 214 219 199 190 193 191 187 159 150 158 169 162 151 143 143 137 138 139 140 142 142 147 149 152 160 155 149 140 137 137 137 136 135 134 136 138 140 136 135 121 110 104
178 137 156 143 286 155 189 180 216 359 348 266 245 214 159 176 163 179 222 246 226 219 210 219 219 207 220 226 232 233 187 115 265 268 244 198 220 219 210 219 216 219 222 233 213 224 206 200 178 161 140 153 156 154 163 155 150 142 142 146 150 145 147 148 154 160 162 163 166 164 158 150 144 144 145 145 142 142 144 141 136 128 129 118 117 116
157 164 186 152 235 131 131 202 330 273 246 237 223 15 130 155 162 178 191 260 223 221 217 219 209 195 216 204 213 197 134 230 276 251 240 231 224 226 235 252 275 234 219 229 211 176 147 147 135 144 154 153 160 158 150 158 156 151 151 155 155 156 157 161 167 166 165 168 170 167 161 154 148 146 147 147 146 142 134 124 116 125 134 128 127 115
23 92 168 174 152 80 143 171 206 213 237 124 165 168 166 152 143 118 99 259 228 208 200 201 195 183 200 193 201 142 135 228 240 234 197 222 237 198 210 231 229 234 231 205 186 173 160 153 150 146 143 153 160 168 160 161 159 158 162 163 163 162 164 174 172 172 170 167 166 164 158 150 145 143 142 139 135 135 135 135 132 124 110 110 112 115
104 111 124 119 142 185 168 181 216 218 242 239 184 178 170 140 117 106 49 256 121 175 182 173 184 185 200 198 169 169 189 218 237 226 205 199 222 195 190 221 221 221 203 147 165 158 147 137 130 148 160 176 181 162 162 161 163 165 164 167 163 169 181 182 172 158 144 144 151 151 143 137 132 132 135 133 128 127 128 129 125 130 125 120 123 123
141 43 190 194 181 182 180 237 328 284 259 236 218 154 142 145 126 130 215 231 196 172 177 181 189 191 194 189 166 193 213 216 210 170 189 189 163 224 57 58 180 178 178 165 155 142 147 167 170 177 183 179 162 159 161 162 162 171 172 167 172 189 181 154 138 138 136 132 135 136 130 124 133 133 129 132 134 129 127 136 136 135 134 131 124 117
169 135 319 79 165 180 192 205 233 259 235 179 305 159 157 113 189 207 218 181 159 198 210 183 191 193 183 181 189 214 224 199 107 8 133 194 191 150 137 128 107 81 67 136 155 156 158 165 172 164 165 167 163 162 162 165 169 170 170 175 190 177 129 132 132 128 129 133 134 133 130 129 123 125 131 132 132 131 128 125 126 131 133 126 125 119
177 166 187 188 161 44 55 204 295 254 229 130 115 97 307 169 224 185 197 44 156 177 160 196 178 182 166 196 205 212 227 167 179 201 202 168 177 182 178 169 175 176 166 151 174 193 164 166 178 181 172 157 162 163 167 166 171 174 174 185 175 131 129 126 127 127 127 128 134 138 138 136 137 138 138 140 142 137 133 134 127 123 125 127 122 120
179 170 185 204 184 176 182 192 208 226 113 164 140 174 202 211 171 150 126 160 260 170 179 177 208 187 185 180 197 216 225 200 249 233 226 219 195 186 176 200 185 178 180 198 179 173 171 166 163 160 153 157 164 169 171 174 174 174 177 178 131 127 121 123 124 125 128 136 141 143 144 143 138 136 139 141 137 133 133 134 131 126 132 132 133 135
209 201 180 186 193 162 199 215 226 187 157 183 176 182 191 191 163 169 155 166 167 238 195 166 199 192 192 185 188 193 201 208 209 189 188 210 189 187 193 197 192 186 182 174 176 170 172 170 166 154 152 165 169 173 175 181 174 168 175 154 136 135 136 131 132 135 141 149 152 150 146 136 136 136 133 140 142 140 138 135 143 135 139 138 136 137
272 192 114 95 255 294 309 200 136 248 258 214 317 270 192 188 236 238 175 158 234 181 167 183 195 188 187 184 156 198 208 204 191 190 214 204 190 200 181 168 171 165 157 146 146 164 158 134 140 153 161 169 177 173 175 175 168 172 165 135 140 137 138 142 142 149 154 155 154 152 145 133 124 122 126 130 131 134 146 149 153 147 146 146 145 146
243 169 123 183 244 161 246 220 169 201 194 204 217 242 309 273 190 165 204 220 188 171 196 240 186 182 178 167 186 186 207 179 187 199 187 183 195 195 191 191 190 181 176 177 174 152 151 154 160 173 175 178 184 176 171 162 154 144 132 153 147 148 149 152 153 151 154 155 150 147 147 142 141 139 133 126 119 115 129 141 140 148 151 155 147 143
257 185 171 189 155 183 230 223 140 246 226 224 203 217 253 216 213 223 214 216 267 230 217 197 117 125 124 177 198 187 190 173 173 186 189 200 197 190 193 193 185 178 190 169 160 167 157 172 178 178 180 185 179 170 159 154 148 140 144 147 152 149 150 154 160 159 159 157 154 154 154 149 148 146 145 145 146 145 143 149 158 162 165 167 169 161
146 123 205 175 186 237 330 6 243 85 34 290 255 248 234 204 199 218 213 220 185 161 169 124 164 180 181 196 173 160 155 206 201 186 183 185 186 195 201 193 186 183 167 172 181 179 184 181 183 185 182 179 165 162 160 157 148 151 155 155 154 157 156 158 154 151 151 152 150 154 156 153 155 153 146 142 132 109 113 149 159 166 139 357 358 231
105 188 175 133 206 222 220 210 134 136 215 232 217 210 218 216 195 176 93 161 176 172 172 171 178 62 201 175 165 174 189 199 197 176 190 193 200 197 184 180 178 174 179 176 163 182 185 189 185 179 183 175 165 165 163 157 154 159 158 155 160 161 161 157 151 151 160 160 159 157 154 153 151 148 145 145 130 123 96 78 95 104 136 153 167 160
181 185 159 183 194 223 227 190 182 205 218 215 201 206 197 160 155 167 196 197 209 202 180 155 148 149 214 232 212 177 189 182 194 175 186 201 213 191 178 172 172 178 177 167 164 186 193 189 182 175 183 174 165 167 165 160 162 164 166 164 167 169 165 157 156 159 159 167 174 171 162 157 156 158 151 148 148 140 134 132 134 140 141 146 154 156